Weather History for KPMV - January, 2014

Change the Weather History Date:

Sunday, January 5, 2014

  Actual Average (KOFF) Record (KOFF)
Temperature  
Mean Temperature 2 °F -  
Max Temperature 11 °F 32 °F 68 °F (2012)
Min Temperature -8 °F 14 °F -8 °F (2014)
Degree Days  
Heating Degree Days 63    
Moisture  
Dew Point -8 °F    
Average Humidity 58    
Maximum Humidity 76    
Minimum Humidity 45    
Precipitation  
Precipitation 0.00 in - - ()
Sea Level Pressure  
Sea Level Pressure 30.36 in    
Wind  
Wind Speed 16 mph (NNW)    
Max Wind Speed 31 mph    
Max Gust Speed 38 mph    
Visibility 10 miles    
Events Snow    
Averages and records for this station are not official NWS values.
T = Trace of Precipitation, MM = Missing Value Source: NWS Daily Summary

Daily Weather History Graph

Daily Weather History Graph

Search for Another Location

Airport or City:

Trip Planner

Search our weather history database for the weather conditions in past years. The results will help you decide how hot, cold, wet, or windy it might be!

Date:

Astronomy

Jan. 05, 2014 Rise Set
Actual Time 7:48 AM CST 5:09 PM CST
Civil Twilight 7:17 AM CST 5:40 PM CST
Nautical Twilight 6:43 AM CST 6:15 PM CST
Astronomical Twilight 6:10 AM CST 6:48 PM CST
Moon 10:28 AM CST (1/5) 10:41 PM CST (1/5)
Length of Visible Light 10h 22m
Length of Day
9h 21m
Waxing Crescent, 25% of the Moon is Illuminated
Jan 5
Waxing Crescent
Jan 7
First Quarter
Jan 15
Full
Jan 23
Last Quarter
Jan 30
New

Hourly Weather History & Observations

Time (CST) Temp. Windchill Dew Point Humidity Pressure Visibility Wind Dir Wind Speed Gust Speed Precip Events Conditions
12:15 AM 11.3 °F -2.2 °F 5.0 °F 76% 30.21 in 10.0 mi NNW 10.4 mph 20.7 mph N/A   Overcast
12:35 AM 10.9 °F -5.4 °F 4.5 °F 75% 30.21 in 10.0 mi NNW 15.0 mph 21.9 mph N/A   Overcast
12:55 AM 10.4 °F -4.1 °F 3.9 °F 75% 30.21 in 10.0 mi NNW 11.5 mph 18.4 mph N/A   Overcast
1:15 AM 9.9 °F -4.0 °F 3.2 °F 74% 30.21 in 10.0 mi North 10.4 mph 18.4 mph N/A   Overcast
1:35 AM 9.5 °F -5.9 °F 2.7 °F 74% 30.20 in 10.0 mi North 12.7 mph 19.6 mph N/A   Overcast
1:55 AM 9.0 °F -5.9 °F 1.8 °F 73% 30.21 in 10.0 mi North 11.5 mph 18.4 mph N/A   Overcast
2:15 AM 8.2 °F -10.0 °F 0.9 °F 72% 30.21 in 10.0 mi NNW 17.3 mph 25.3 mph N/A   Overcast
2:35 AM 7.5 °F -9.1 °F -0.4 °F 70% 30.21 in 10.0 mi NNW 13.8 mph 23.0 mph N/A   Overcast
2:55 AM 7.0 °F -10.4 °F -1.3 °F 69% 30.21 in 10.0 mi NNW 15.0 mph 23.0 mph N/A   Mostly Cloudy
3:15 AM 6.4 °F -12.8 °F -2.0 °F 68% 30.21 in 10.0 mi NNW 18.4 mph 26.5 mph N/A   Scattered Clouds
3:35 AM 5.9 °F -13.5 °F -2.7 °F 68% 30.22 in 10.0 mi NNW 18.4 mph 21.9 mph N/A   Clear
3:55 AM 5.9 °F -11.2 °F -3.1 °F 67% 30.23 in 10.0 mi NNW 13.8 mph 21.9 mph N/A   Clear
4:15 AM 5.7 °F -12.0 °F -3.3 °F 66% 30.23 in 10.0 mi NNW 15.0 mph 21.9 mph N/A   Mostly Cloudy
4:35 AM 5.5 °F -12.3 °F -4.0 °F 65% 30.23 in 10.0 mi NNW 15.0 mph 24.2 mph N/A   Mostly Cloudy
4:55 AM 5.4 °F -12.5 °F -4.0 °F 65% 30.23 in 10.0 mi NNW 15.0 mph 24.2 mph N/A   Scattered Clouds
5:15 AM 5.4 °F -11.8 °F -4.4 °F 64% 30.23 in 10.0 mi NNW 13.8 mph 25.3 mph N/A   Overcast
5:35 AM 5.2 °F -14.5 °F -4.4 °F 65% 30.23 in 10.0 mi NNW 18.4 mph 24.2 mph N/A   Overcast
5:55 AM 5.0 °F -13.6 °F -5.4 °F 62% 30.24 in 10.0 mi NNW 16.1 mph 26.5 mph N/A   Overcast
6:15 AM 4.8 °F -12.5 °F -5.8 °F 62% 30.25 in 10.0 mi NNW 13.8 mph 21.9 mph N/A   Overcast
6:35 AM 4.5 °F -13.7 °F -6.0 °F 62% 30.27 in 10.0 mi North 15.0 mph 24.2 mph N/A   Overcast
6:55 AM 4.5 °F -15.9 °F -7.2 °F 58% 30.28 in 10.0 mi NNW 19.6 mph 26.5 mph N/A   Overcast
7:15 AM 4.1 °F -14.7 °F -8.0 °F 57% 30.29 in 10.0 mi NNW 16.1 mph 27.6 mph N/A   Overcast
7:35 AM 3.9 °F -17.1 °F -8.1 °F 57% 30.29 in 10.0 mi NNW 20.7 mph 25.3 mph N/A   Overcast
7:55 AM 3.7 °F -14.6 °F -8.5 °F 57% 30.30 in 10.0 mi North 15.0 mph 26.5 mph N/A   Overcast
8:15 AM 3.6 °F -16.0 °F -9.2 °F 55% 30.31 in 10.0 mi NNW 17.3 mph 27.6 mph N/A   Overcast
8:35 AM 3.6 °F -14.8 °F -10.3 °F 53% 30.32 in 10.0 mi North 15.0 mph 26.5 mph N/A   Overcast
8:55 AM 3.7 °F -15.2 °F -9.8 °F 54% 30.32 in 10.0 mi NNW 16.1 mph 23.0 mph N/A   Overcast
9:15 AM 3.7 °F -15.2 °F -10.3 °F 52% 30.33 in 10.0 mi North 16.1 mph 24.2 mph N/A   Overcast
9:35 AM 3.9 °F -14.3 °F -10.5 °F 51% 30.34 in 10.0 mi NNW 15.0 mph 24.2 mph N/A   Mostly Cloudy
9:55 AM 3.6 °F -16.6 °F -11.0 °F 51% 30.35 in 10.0 mi North 18.4 mph 25.3 mph N/A   Mostly Cloudy
10:15 AM 3.7 °F -15.2 °F -10.8 °F 51% 30.36 in 10.0 mi North 16.1 mph 21.9 mph N/A   Scattered Clouds
10:35 AM 5.9 °F -11.8 °F -9.8 °F 49% 30.37 in 10.0 mi NNW 15.0 mph 24.2 mph N/A   Mostly Cloudy
10:55 AM 5.7 °F -14.3 °F -10.1 °F 48% 30.37 in 10.0 mi NNW 19.6 mph 26.5 mph N/A   Overcast
11:15 AM 6.1 °F -12.2 °F -9.8 °F 48% 30.37 in 10.0 mi North 16.1 mph 26.5 mph N/A   Overcast
11:35 AM 6.1 °F -12.2 °F -9.8 °F 48% 30.37 in 10.0 mi North 16.1 mph 24.2 mph N/A   Scattered Clouds
11:55 AM 6.3 °F -11.3 °F -9.2 °F 49% 30.37 in 10.0 mi NNW 15.0 mph 26.5 mph N/A   Clear
12:15 PM 7.7 °F -7.4 °F -7.2 °F 51% 30.36 in 10.0 mi North 11.5 mph 24.2 mph N/A   Clear
12:35 PM 8.4 °F -10.8 °F -6.9 °F 50% 30.36 in 10.0 mi NNW 19.6 mph 27.6 mph N/A   Clear
12:55 PM 8.6 °F -11.9 °F -5.8 °F 52% 30.36 in 10.0 mi NNW 23.0 mph 29.9 mph N/A   Clear
1:15 PM 8.2 °F -11.9 °F -6.3 °F 52% 30.36 in 10.0 mi NNW 21.9 mph 28.8 mph N/A   Scattered Clouds
1:35 PM 8.6 °F -10.0 °F -6.0 °F 52% 30.36 in 10.0 mi NNW 18.4 mph 25.3 mph N/A   Scattered Clouds
1:55 PM 9.3 °F -7.4 °F -6.2 °F 50% 30.36 in 10.0 mi NNW 15.0 mph 28.8 mph N/A   Clear
2:15 PM 9.9 °F -8.4 °F -6.3 °F 48% 30.36 in 10.0 mi NNW 18.4 mph 27.6 mph N/A   Clear
2:35 PM 10.0 °F -9.1 °F -7.2 °F 46% 30.37 in 10.0 mi NNW 20.7 mph 34.5 mph N/A   Clear
2:55 PM 9.9 °F -11.7 °F -7.6 °F 45% 30.38 in 10.0 mi NNW 27.6 mph 36.8 mph N/A   Clear
3:15 PM 9.0 °F -11.8 °F -7.2 °F 48% 30.39 in 10.0 mi NNW 24.2 mph 34.5 mph N/A   Mostly Cloudy
3:35 PM 8.4 °F -13.7 °F -8.3 °F 47% 30.40 in 10.0 mi NNW 27.6 mph 36.8 mph N/A   Scattered Clouds
3:55 PM 7.2 °F -12.9 °F -8.9 °F 48% 30.41 in 10.0 mi NW 20.7 mph 33.4 mph N/A   Scattered Clouds
4:15 PM 6.8 °F -13.4 °F -8.7 °F 49% 30.41 in 10.0 mi NNW 20.7 mph 28.8 mph N/A   Mostly Cloudy
4:35 PM 5.9 °F -14.5 °F -9.9 °F 48% 30.42 in 10.0 mi NNW 20.7 mph 28.8 mph N/A   Scattered Clouds
4:55 PM 5.2 °F -13.9 °F -8.5 °F 53% 30.43 in 10.0 mi NNW 17.3 mph 24.2 mph N/A   Scattered Clouds
5:15 PM 4.1 °F -15.3 °F -8.9 °F 55% 30.43 in 10.0 mi NW 17.3 mph 23.0 mph N/A   Scattered Clouds
5:35 PM 4.1 °F -16.4 °F -9.6 °F 53% 30.43 in 10.0 mi NW 19.6 mph 27.6 mph N/A   Clear
5:55 PM 3.7 °F -13.2 °F -10.3 °F 52% 30.44 in 10.0 mi NNW 12.7 mph 18.4 mph N/A   Clear
6:15 PM 4.1 °F -16.9 °F -11.6 °F 48% 30.45 in 10.0 mi NW 20.7 mph 26.5 mph N/A   Scattered Clouds
6:35 PM 4.3 °F -18.5 °F -9.2 °F 54% 30.45 in 10.0 mi NW 25.3 mph 38.0 mph N/A   Mostly Cloudy
6:55 PM 2.7 °F -22.6 °F -10.3 °F 55% 30.47 in 10.0 mi NW 31.1 mph 36.8 mph N/A   Mostly Cloudy
7:15 PM 0.5 °F -24.4 °F -10.3 °F 60% 30.48 in 10.0 mi NNW 27.6 mph 35.7 mph N/A   Scattered Clouds
7:35 PM -1.1 °F -24.3 °F -14.3 °F 54% 30.49 in 10.0 mi NW 21.9 mph 32.2 mph N/A   Clear
7:55 PM -2.6 °F -26.7 °F -14.8 °F 56% 30.50 in 10.0 mi NW 23.0 mph 31.1 mph N/A   Clear
8:15 PM -3.5 °F -25.7 °F -14.6 °F 59% 30.50 in 10.0 mi NW 18.4 mph 28.8 mph N/A   Clear
8:35 PM -3.8 °F -26.2 °F -13.9 °F 62% 30.51 in 10.0 mi NW 18.4 mph 26.5 mph N/A   Clear
8:55 PM -4.0 °F -27.0 °F -12.3 °F 68% 30.51 in 5.0 mi NNW 19.6 mph 24.2 mph N/A   Haze
9:15 PM -3.6 °F -26.5 °F -12.1 °F 67% 30.51 in 3.0 mi NW 19.6 mph 24.2 mph N/A Snow Light Snow
9:35 PM -4.5 °F -27.7 °F -17.5 °F 54% 30.51 in 10.0 mi NW 19.6 mph 27.6 mph N/A   Overcast
9:55 PM -5.1 °F -26.6 °F -17.5 °F 55% 30.52 in 10.0 mi NW 16.1 mph 23.0 mph N/A   Overcast
10:15 PM -5.1 °F -33.1 °F -15.0 °F 62% 30.51 in 7.0 mi NW 31.1 mph 36.8 mph N/A   Overcast
10:35 PM -6.2 °F -31.0 °F -19.7 °F 52% 30.51 in 10.0 mi NW 21.9 mph 31.1 mph N/A   Mostly Cloudy
10:55 PM -7.1 °F -29.8 °F -19.7 °F 54% 30.52 in 10.0 mi NW 17.3 mph 21.9 mph N/A   Scattered Clouds
11:15 PM -7.6 °F -30.5 °F -19.3 °F 57% 30.51 in 10.0 mi NW 17.3 mph - N/A   Clear
11:35 PM -7.6 °F -29.8 °F -19.3 °F 57% 30.51 in 10.0 mi NW 16.1 mph - N/A   Clear
11:55 PM -8.0 °F -28.8 °F -19.3 °F 58% 30.50 in 10.0 mi NW 13.8 mph - N/A   Clear